{"data":{"norad_id":62269,"intl_designator":"2024-237C","name":"STARLINK-11491 [DTC]","alt_names":[],"object_type":"PAYLOAD","status":"ACTIVE","operator":null,"country":"US","launch_date":"2024-12-08","launch_site_code":"AFETR","launch_vehicle":null,"mission":null,"orbit_class":"UNKNOWN","rcs_meters":null,"size_class":null,"mass_kg":null,"dimensions":null,"purposes":["comms"],"wikipedia_slug":null,"has_3d_model":false,"image_url":null,"decayed_at":null,"tle_current":{"epoch":"2026-05-25T04:13:20.878176Z","epoch_age_seconds":56542,"freshness":"FRESH","line1":"1 62269U 24237C   26145.17593609  .00180980  00000+0  13820-2 0  9992","line2":"2 62269  42.9994 315.3923 0001392 289.1437  70.9280 15.70863969 85080","mean_motion":15.70863969,"eccentricity":0.0001392,"inclination_deg":42.9994,"raan_deg":315.3923,"arg_perigee_deg":289.1437,"mean_anomaly_deg":70.928,"bstar":0.001382,"rev_number":8508,"period_min":91.669299724068,"perigee_km":355.489103305,"apogee_km":357.36400579859,"semimajor_km":6734.5635545518,"source":"CELESTRAK","updated_at":"2026-05-25T13:38:19.641260Z"}}}